DAL1380 KPIT-KATL

Flight info

Callsign DAL1380
Flight time 1h 15m
Altitude 36000
Route AHTIY BURGS HVQ HLRRY ONDRE1
Aircraft B739/M-SDE2E3FGHIRWXY/LB1

Departure

Time 2026-05-05 14:29
Airport Pittsburgh International Airport (KPIT)

Arrival

Time 2026-05-05 15:44
Airport Hartsfield Jackson Atlanta International Airport (KATL)
Time Latitude Longitude Altitude Speed Heading
2026-05-05 13:42 40.49715 -80.24686 1175 ft 0 kts 227°
2026-05-05 14:14 40.49730 -80.24669 1173 ft 4 kts 205°
2026-05-05 14:15 40.49755 -80.24661 1174 ft 5 kts 181°
2026-05-05 14:15 40.49782 -80.24662 1176 ft 4 kts 175°
2026-05-05 14:15 40.49803 -80.24663 1175 ft 1 kts 186°
2026-05-05 14:18 40.49802 -80.24663 1177 ft 2 kts 186°
2026-05-05 14:19 40.49792 -80.24652 1176 ft 3 kts 124°
2026-05-05 14:19 40.49780 -80.24613 1178 ft 6 kts 101°
2026-05-05 14:19 40.49783 -80.24552 1179 ft 7 kts 75°
2026-05-05 14:19 40.49809 -80.24500 1181 ft 7 kts 48°
2026-05-05 14:20 40.49840 -80.24455 1183 ft 7 kts 46°
2026-05-05 14:20 40.49872 -80.24411 1186 ft 7 kts 46°
2026-05-05 14:20 40.49901 -80.24367 1187 ft 6 kts 56°
2026-05-05 14:20 40.49912 -80.24310 1188 ft 7 kts 88°
2026-05-05 14:21 40.49912 -80.24237 1188 ft 9 kts 92°
2026-05-05 14:21 40.49909 -80.24143 1187 ft 11 kts 92°
2026-05-05 14:21 40.49907 -80.24031 1186 ft 13 kts 92°
2026-05-05 14:21 40.49896 -80.23902 1185 ft 15 kts 117°
2026-05-05 14:22 40.49843 -80.23872 1185 ft 10 kts 178°
2026-05-05 14:22 40.49745 -80.23875 1176 ft 19 kts 181°
2026-05-05 14:22 40.49600 -80.23882 1168 ft 23 kts 181°
2026-05-05 14:22 40.49427 -80.23890 1157 ft 26 kts 182°
2026-05-05 14:23 40.49265 -80.23898 1148 ft 23 kts 181°
2026-05-05 14:23 40.49129 -80.23902 1149 ft 16 kts 181°
2026-05-05 14:23 40.49063 -80.23817 1146 ft 16 kts 92°
2026-05-05 14:23 40.49059 -80.23673 1149 ft 16 kts 92°
2026-05-05 14:24 40.49056 -80.23534 1150 ft 15 kts 91°
2026-05-05 14:24 40.49052 -80.23390 1146 ft 18 kts 92°
2026-05-05 14:24 40.49047 -80.23190 1144 ft 23 kts 92°
2026-05-05 14:24 40.49041 -80.22983 1145 ft 22 kts 92°
2026-05-05 14:25 40.49036 -80.22781 1143 ft 22 kts 92°
2026-05-05 14:25 40.49031 -80.22583 1144 ft 21 kts 92°
2026-05-05 14:25 40.49026 -80.22390 1144 ft 21 kts 92°
2026-05-05 14:25 40.49033 -80.22204 1142 ft 20 kts 89°
2026-05-05 14:26 40.49030 -80.22023 1144 ft 20 kts 92°
2026-05-05 14:26 40.49025 -80.21844 1146 ft 20 kts 92°
2026-05-05 14:26 40.49020 -80.21657 1143 ft 20 kts 92°
2026-05-05 14:26 40.48992 -80.21477 1143 ft 20 kts 97°
2026-05-05 14:27 40.48983 -80.21288 1143 ft 21 kts 92°
2026-05-05 14:27 40.48978 -80.21100 1141 ft 20 kts 92°
2026-05-05 14:27 40.48962 -80.20958 1142 ft 12 kts 132°
2026-05-05 14:27 40.48896 -80.20976 1144 ft 12 kts 253°
2026-05-05 14:28 40.48896 -80.21159 1145 ft 43 kts 271°
2026-05-05 14:28 40.48915 -80.21875 1141 ft 111 kts 271°
2026-05-05 14:28 40.48937 -80.22649 1146 ft 146 kts 272°
2026-05-05 14:28 40.49038 -80.24662 1620 ft 175 kts 269°
2026-05-05 14:29 40.49110 -80.25719 2122 ft 176 kts 271°
2026-05-05 14:29 40.49255 -80.27371 2711 ft 191 kts 269°
2026-05-05 14:29 40.49186 -80.29197 2952 ft 208 kts 246°
2026-05-05 14:29 40.48315 -80.30691 3524 ft 213 kts 217°
2026-05-05 14:30 40.46947 -80.31485 4212 ft 219 kts 200°
2026-05-05 14:30 40.45422 -80.31805 4866 ft 222 kts 194°
2026-05-05 14:30 40.43863 -80.31993 5475 ft 228 kts 193°
2026-05-05 14:30 40.42254 -80.32174 5955 ft 240 kts 193°
2026-05-05 14:31 40.40547 -80.32369 6496 ft 250 kts 192°
2026-05-05 14:31 40.38800 -80.32570 7315 ft 253 kts 192°
2026-05-05 14:31 40.37036 -80.32775 8154 ft 257 kts 193°
2026-05-05 14:31 40.35238 -80.32991 8929 ft 262 kts 193°
2026-05-05 14:32 40.33433 -80.33211 9728 ft 266 kts 193°
2026-05-05 14:32 40.31566 -80.33443 10398 ft 275 kts 193°
2026-05-05 14:32 40.29573 -80.33700 10573 ft 300 kts 192°
2026-05-05 14:32 40.27419 -80.33978 10840 ft 320 kts 192°
2026-05-05 14:33 40.25173 -80.34260 11425 ft 328 kts 192°
2026-05-05 14:33 40.22888 -80.34541 12176 ft 331 kts 192°
2026-05-05 14:33 40.20578 -80.34826 12918 ft 334 kts 192°
2026-05-05 14:33 40.18250 -80.35116 13616 ft 338 kts 192°
2026-05-05 14:34 40.15898 -80.35410 14275 ft 341 kts 192°
2026-05-05 14:34 40.13517 -80.35709 14854 ft 346 kts 192°
2026-05-05 14:34 40.11098 -80.36014 15420 ft 352 kts 191°
2026-05-05 14:34 40.08643 -80.36323 16027 ft 357 kts 191°
2026-05-05 14:35 40.06156 -80.36636 16614 ft 361 kts 191°
2026-05-05 14:35 40.03632 -80.36952 17196 ft 366 kts 191°
2026-05-05 14:35 40.01077 -80.37273 17762 ft 371 kts 191°
2026-05-05 14:35 39.98521 -80.37594 18295 ft 376 kts 191°
2026-05-05 14:36 39.95864 -80.37927 18792 ft 381 kts 191°
2026-05-05 14:36 39.93281 -80.38435 19320 ft 378 kts 200°
2026-05-05 14:36 39.90801 -80.39534 19849 ft 376 kts 208°
2026-05-05 14:36 39.88496 -80.41130 20341 ft 375 kts 218°
2026-05-05 14:37 39.86351 -80.43100 20848 ft 377 kts 220°
2026-05-05 14:37 39.84231 -80.45126 21338 ft 381 kts 221°
2026-05-05 14:37 39.82086 -80.47180 21837 ft 384 kts 221°
2026-05-05 14:37 39.79920 -80.49236 22343 ft 388 kts 220°
2026-05-05 14:38 39.77719 -80.51307 22822 ft 392 kts 220°
2026-05-05 14:38 39.75494 -80.53387 23302 ft 396 kts 220°
2026-05-05 14:38 39.73239 -80.55488 23731 ft 400 kts 220°
2026-05-05 14:38 39.70974 -80.57595 24174 ft 402 kts 220°
2026-05-05 14:39 39.68694 -80.59703 24639 ft 403 kts 220°
2026-05-05 14:39 39.66384 -80.61793 25091 ft 405 kts 220°
2026-05-05 14:39 39.64051 -80.63879 25496 ft 408 kts 219°
2026-05-05 14:39 39.61708 -80.65967 25913 ft 410 kts 219°
2026-05-05 14:40 39.59346 -80.68072 26306 ft 413 kts 219°
2026-05-05 14:40 39.56978 -80.70182 26713 ft 415 kts 219°
2026-05-05 14:40 39.54620 -80.72285 27085 ft 417 kts 219°
2026-05-05 14:40 39.52221 -80.74425 27501 ft 419 kts 220°
2026-05-05 14:41 39.49814 -80.76573 27894 ft 421 kts 219°
2026-05-05 14:41 39.47397 -80.78727 28275 ft 423 kts 219°
2026-05-05 14:41 39.44960 -80.80897 28633 ft 426 kts 219°
2026-05-05 14:41 39.42512 -80.83076 29000 ft 428 kts 219°
2026-05-05 14:42 39.40059 -80.85259 29359 ft 430 kts 219°
2026-05-05 14:42 39.37587 -80.87455 29797 ft 431 kts 219°
2026-05-05 14:42 39.35118 -80.89645 30291 ft 428 kts 219°
2026-05-05 14:42 39.32670 -80.91813 30748 ft 426 kts 220°
2026-05-05 14:43 39.30224 -80.93980 31106 ft 426 kts 220°
2026-05-05 14:43 39.27768 -80.96155 31445 ft 427 kts 220°
2026-05-05 14:43 39.25356 -80.98290 31815 ft 426 kts 221°
2026-05-05 14:43 39.22913 -81.00449 32193 ft 425 kts 221°
2026-05-05 14:44 39.20469 -81.02608 32525 ft 425 kts 221°
2026-05-05 14:44 39.18025 -81.04766 32845 ft 426 kts 221°
2026-05-05 14:44 39.15585 -81.06917 33172 ft 426 kts 222°
2026-05-05 14:44 39.13141 -81.09070 33501 ft 426 kts 222°
2026-05-05 14:45 39.10696 -81.11222 33810 ft 426 kts 222°
2026-05-05 14:45 39.08235 -81.13387 34090 ft 426 kts 223°
2026-05-05 14:45 39.05784 -81.15540 34347 ft 426 kts 223°
2026-05-05 14:45 39.03365 -81.17664 34605 ft 426 kts 223°
2026-05-05 14:46 39.00887 -81.19838 34886 ft 425 kts 223°
2026-05-05 14:46 38.98476 -81.21951 35145 ft 425 kts 223°
2026-05-05 14:46 38.96029 -81.24093 35399 ft 425 kts 224°
2026-05-05 14:46 38.93583 -81.26232 35662 ft 424 kts 224°
2026-05-05 14:47 38.91136 -81.28371 35901 ft 424 kts 224°
2026-05-05 14:47 38.88683 -81.30516 35923 ft 428 kts 224°
2026-05-05 14:47 38.83766 -81.34807 35929 ft 426 kts 224°
2026-05-05 14:48 38.78879 -81.39056 35931 ft 422 kts 224°
2026-05-05 14:48 38.74035 -81.43266 35936 ft 419 kts 225°
2026-05-05 14:49 38.69213 -81.47455 35950 ft 419 kts 225°
2026-05-05 14:49 38.64386 -81.51641 35961 ft 420 kts 225°
2026-05-05 14:50 38.59557 -81.55822 35968 ft 423 kts 225°
2026-05-05 14:50 38.54667 -81.60048 35979 ft 426 kts 225°
2026-05-05 14:51 38.49728 -81.64307 35985 ft 430 kts 225°
2026-05-05 14:51 38.44750 -81.68591 35973 ft 432 kts 225°
2026-05-05 14:52 38.39751 -81.72887 35975 ft 434 kts 225°
2026-05-05 14:52 38.34645 -81.77046 35965 ft 443 kts 218°
2026-05-05 14:53 38.28761 -81.79889 35969 ft 455 kts 209°
2026-05-05 14:53 38.22797 -81.82405 35970 ft 454 kts 209°
2026-05-05 14:54 38.16812 -81.84959 35961 ft 453 kts 210°
2026-05-05 14:54 38.10851 -81.87545 35963 ft 451 kts 210°
2026-05-05 14:55 38.04920 -81.90134 35966 ft 450 kts 210°
2026-05-05 14:55 37.98987 -81.92721 35959 ft 450 kts 210°
2026-05-05 14:56 37.93063 -81.95299 35985 ft 450 kts 210°
2026-05-05 14:56 37.87134 -81.97874 35985 ft 451 kts 210°
2026-05-05 14:57 37.81197 -82.00448 35982 ft 452 kts 211°
2026-05-05 14:57 37.75277 -82.03009 35964 ft 453 kts 211°
2026-05-05 14:58 37.69304 -82.05587 35980 ft 453 kts 210°
2026-05-05 14:58 37.63319 -82.08168 35985 ft 455 kts 211°
2026-05-05 14:59 37.57324 -82.10749 35986 ft 456 kts 210°
2026-05-05 14:59 37.51315 -82.13330 35993 ft 456 kts 211°
2026-05-05 15:00 37.46311 -82.15477 35993 ft 458 kts 210°
2026-05-05 15:00 37.39267 -82.18491 36005 ft 457 kts 211°
2026-05-05 15:01 37.33227 -82.21075 35999 ft 459 kts 210°
2026-05-05 15:01 37.27178 -82.23655 35993 ft 458 kts 211°
2026-05-05 15:02 37.21176 -82.26211 36016 ft 459 kts 211°
2026-05-05 15:02 37.15129 -82.28785 36031 ft 459 kts 211°
2026-05-05 15:03 37.09080 -82.31354 36050 ft 459 kts 211°
2026-05-05 15:03 37.03182 -82.34204 36076 ft 450 kts 217°
2026-05-05 15:04 36.97520 -82.37513 36090 ft 448 kts 218°
2026-05-05 15:04 36.91865 -82.40835 36099 ft 451 kts 217°
2026-05-05 15:05 36.83319 -82.45701 36080 ft 451 kts 217°
2026-05-05 15:06 36.77601 -82.48917 36064 ft 451 kts 217°
2026-05-05 15:06 36.71876 -82.52131 36041 ft 451 kts 217°
2026-05-05 15:07 36.66157 -82.55339 36051 ft 451 kts 217°
2026-05-05 15:07 36.60434 -82.58547 36052 ft 451 kts 217°
2026-05-05 15:08 36.54704 -82.61753 36056 ft 451 kts 217°
2026-05-05 15:08 36.48977 -82.64951 36048 ft 452 kts 217°
2026-05-05 15:09 36.43233 -82.68154 36064 ft 452 kts 217°
2026-05-05 15:09 36.37483 -82.71355 36057 ft 452 kts 217°
2026-05-05 15:10 36.31776 -82.74528 36057 ft 453 kts 217°
2026-05-05 15:10 36.26016 -82.77726 36056 ft 454 kts 217°
2026-05-05 15:11 36.20281 -82.81005 36061 ft 453 kts 219°
2026-05-05 15:11 36.14599 -82.84380 36059 ft 453 kts 219°
2026-05-05 15:12 36.08903 -82.87752 36056 ft 454 kts 219°
2026-05-05 15:12 36.03185 -82.91114 36048 ft 455 kts 219°
2026-05-05 15:13 35.97456 -82.94469 36048 ft 456 kts 219°
2026-05-05 15:13 35.92683 -82.97260 36034 ft 457 kts 219°
2026-05-05 15:14 35.86936 -83.00614 36031 ft 456 kts 219°
2026-05-05 15:14 35.81194 -83.03965 36042 ft 457 kts 219°
2026-05-05 15:15 35.75434 -83.07317 36030 ft 457 kts 219°
2026-05-05 15:15 35.69696 -83.10651 36036 ft 456 kts 219°
2026-05-05 15:16 35.63959 -83.13985 36042 ft 455 kts 219°
2026-05-05 15:16 35.58263 -83.17289 36051 ft 455 kts 218°
2026-05-05 15:17 35.52531 -83.20611 36054 ft 456 kts 219°
2026-05-05 15:17 35.46762 -83.23949 36056 ft 459 kts 219°
2026-05-05 15:18 35.40935 -83.27305 35615 ft 468 kts 218°
2026-05-05 15:18 35.37991 -83.28971 35213 ft 465 kts 218°
2026-05-05 15:18 35.35060 -83.30616 34715 ft 461 kts 218°
2026-05-05 15:18 35.32155 -83.32244 34221 ft 457 kts 217°
2026-05-05 15:19 35.29281 -83.33858 33691 ft 452 kts 218°
2026-05-05 15:19 35.26436 -83.35460 33181 ft 448 kts 217°
2026-05-05 15:19 35.23655 -83.37029 32679 ft 443 kts 216°
2026-05-05 15:19 35.20866 -83.38602 32193 ft 438 kts 216°
2026-05-05 15:20 35.18115 -83.40152 31721 ft 433 kts 215°
2026-05-05 15:20 35.15392 -83.41687 31257 ft 428 kts 215°
2026-05-05 15:20 35.12707 -83.43200 30809 ft 424 kts 214°
2026-05-05 15:20 35.10041 -83.44700 30353 ft 420 kts 214°
2026-05-05 15:21 35.07398 -83.46184 29870 ft 416 kts 213°
2026-05-05 15:21 35.04788 -83.47665 29328 ft 411 kts 213°
2026-05-05 15:21 35.02221 -83.49138 28912 ft 404 kts 214°
2026-05-05 15:21 34.99694 -83.50597 28424 ft 400 kts 213°
2026-05-05 15:22 34.97199 -83.52039 27945 ft 395 kts 213°
2026-05-05 15:22 34.94733 -83.53460 27543 ft 389 kts 213°
2026-05-05 15:22 34.92295 -83.54866 27080 ft 386 kts 213°
2026-05-05 15:22 34.89884 -83.56255 26640 ft 382 kts 213°
2026-05-05 15:23 34.87491 -83.57631 26205 ft 378 kts 213°
2026-05-05 15:23 34.85125 -83.58990 25783 ft 374 kts 212°
2026-05-05 15:23 34.82775 -83.60339 25362 ft 371 kts 212°
2026-05-05 15:23 34.80450 -83.61673 24948 ft 368 kts 212°
2026-05-05 15:24 34.78140 -83.62998 24533 ft 366 kts 212°
2026-05-05 15:24 34.75840 -83.64316 24107 ft 364 kts 211°
2026-05-05 15:24 34.73556 -83.65624 23679 ft 363 kts 211°
2026-05-05 15:24 34.71278 -83.66927 23189 ft 361 kts 211°
2026-05-05 15:25 34.69016 -83.68220 22743 ft 358 kts 211°
2026-05-05 15:25 34.66768 -83.69504 22303 ft 355 kts 211°
2026-05-05 15:25 34.64575 -83.70755 21899 ft 352 kts 211°
2026-05-05 15:25 34.62365 -83.72016 21476 ft 349 kts 210°
2026-05-05 15:26 34.60168 -83.73271 20972 ft 349 kts 210°
2026-05-05 15:26 34.57986 -83.74518 20563 ft 346 kts 210°
2026-05-05 15:26 34.55818 -83.75757 20151 ft 343 kts 210°
2026-05-05 15:26 34.53659 -83.76990 19743 ft 341 kts 210°
2026-05-05 15:27 34.51522 -83.78210 19347 ft 339 kts 209°
2026-05-05 15:27 34.49393 -83.79425 18940 ft 337 kts 209°
2026-05-05 15:27 34.47277 -83.80631 18529 ft 336 kts 209°
2026-05-05 15:27 34.45173 -83.81831 18100 ft 334 kts 208°
2026-05-05 15:28 34.43075 -83.83025 17670 ft 331 kts 208°
2026-05-05 15:28 34.40996 -83.84209 17260 ft 329 kts 208°
2026-05-05 15:28 34.38938 -83.85380 16847 ft 326 kts 208°
2026-05-05 15:28 34.36891 -83.86544 16466 ft 323 kts 208°
2026-05-05 15:29 34.34858 -83.87699 16075 ft 321 kts 208°
2026-05-05 15:29 34.32848 -83.88841 15694 ft 318 kts 208°
2026-05-05 15:29 34.30877 -83.90041 15303 ft 316 kts 210°
2026-05-05 15:29 34.28942 -83.91281 14926 ft 314 kts 210°
2026-05-05 15:30 34.27023 -83.92518 14553 ft 312 kts 210°
2026-05-05 15:30 34.25135 -83.93727 14179 ft 311 kts 210°
2026-05-05 15:30 34.23222 -83.94943 13780 ft 309 kts 210°
2026-05-05 15:30 34.21326 -83.96144 13362 ft 305 kts 210°
2026-05-05 15:31 34.19464 -83.97320 12975 ft 299 kts 209°
2026-05-05 15:31 34.17648 -83.98466 12700 ft 291 kts 209°
2026-05-05 15:31 34.15862 -83.99593 12431 ft 289 kts 209°
2026-05-05 15:31 34.14081 -84.00718 12164 ft 288 kts 209°
2026-05-05 15:32 34.12304 -84.01840 11912 ft 288 kts 209°
2026-05-05 15:32 34.10523 -84.02964 11649 ft 289 kts 209°
2026-05-05 15:32 34.08741 -84.04088 11390 ft 289 kts 209°
2026-05-05 15:32 34.06955 -84.05213 11126 ft 289 kts 209°
2026-05-05 15:33 34.05181 -84.06331 10861 ft 288 kts 209°
2026-05-05 15:33 34.03417 -84.07441 10602 ft 284 kts 208°
2026-05-05 15:33 34.01681 -84.08532 10342 ft 279 kts 208°
2026-05-05 15:33 33.99869 -84.09305 10076 ft 277 kts 188°
2026-05-05 15:34 33.97956 -84.09234 9829 ft 275 kts 172°
2026-05-05 15:34 33.96102 -84.08824 9570 ft 272 kts 171°
2026-05-05 15:34 33.94231 -84.08402 9306 ft 268 kts 172°
2026-05-05 15:34 33.92404 -84.07993 9056 ft 266 kts 171°
2026-05-05 15:35 33.90596 -84.07577 8749 ft 264 kts 171°
2026-05-05 15:35 33.88801 -84.07160 8385 ft 266 kts 171°
2026-05-05 15:35 33.86999 -84.06738 8155 ft 256 kts 171°
2026-05-05 15:35 33.85303 -84.06336 7870 ft 247 kts 171°
2026-05-05 15:36 33.83650 -84.05938 7578 ft 237 kts 171°
2026-05-05 15:36 33.82058 -84.05557 7271 ft 230 kts 172°
2026-05-05 15:36 33.80512 -84.05202 7016 ft 223 kts 172°
2026-05-05 15:36 33.78988 -84.04857 6789 ft 222 kts 172°
2026-05-05 15:37 33.77473 -84.04516 6557 ft 222 kts 172°
2026-05-05 15:37 33.75954 -84.04168 6299 ft 222 kts 173°
2026-05-05 15:37 33.74457 -84.04263 6009 ft 215 kts 202°
2026-05-05 15:37 33.73176 -84.05135 5781 ft 211 kts 216°
2026-05-05 15:38 33.72027 -84.06223 5536 ft 210 kts 219°
2026-05-05 15:38 33.70900 -84.07335 5294 ft 209 kts 219°
2026-05-05 15:38 33.69778 -84.08448 5082 ft 210 kts 219°
2026-05-05 15:38 33.68643 -84.09578 5012 ft 212 kts 219°
2026-05-05 15:39 33.67523 -84.10704 5007 ft 208 kts 219°
2026-05-05 15:39 33.66420 -84.11839 5000 ft 209 kts 222°
2026-05-05 15:39 33.65423 -84.13128 4953 ft 212 kts 239°
2026-05-05 15:39 33.65054 -84.14820 4993 ft 213 kts 261°
2026-05-05 15:40 33.64983 -84.16621 4893 ft 218 kts 265°
2026-05-05 15:40 33.64979 -84.18430 4601 ft 213 kts 266°
2026-05-05 15:40 33.64982 -84.20177 4357 ft 206 kts 266°
2026-05-05 15:40 33.64982 -84.21884 4078 ft 202 kts 266°
2026-05-05 15:41 33.64971 -84.23554 3833 ft 199 kts 265°
2026-05-05 15:41 33.64970 -84.25183 3548 ft 193 kts 267°
2026-05-05 15:41 33.64973 -84.26745 3363 ft 186 kts 266°
2026-05-05 15:41 33.64967 -84.28273 3066 ft 175 kts 266°
2026-05-05 15:42 33.64980 -84.29686 2833 ft 161 kts 267°
2026-05-05 15:42 33.64968 -84.30958 2646 ft 155 kts 265°
2026-05-05 15:42 33.64963 -84.32231 2477 ft 153 kts 266°
2026-05-05 15:42 33.64965 -84.33516 2246 ft 155 kts 268°
2026-05-05 15:43 33.64965 -84.34780 2053 ft 147 kts 266°
2026-05-05 15:43 33.64958 -84.36000 1850 ft 146 kts 266°
2026-05-05 15:43 33.64954 -84.37239 1662 ft 151 kts 267°
2026-05-05 15:43 33.64956 -84.38491 1450 ft 148 kts 267°
2026-05-05 15:44 33.64959 -84.39724 1222 ft 148 kts 267°
2026-05-05 15:44 33.64956 -84.40926 1068 ft 140 kts 268°
2026-05-05 15:44 33.64954 -84.41979 1035 ft 100 kts 270°
2026-05-05 15:44 33.64951 -84.42524 1035 ft 34 kts 265°
2026-05-05 15:45 33.64884 -84.42778 1034 ft 31 kts 240°
2026-05-05 15:45 33.64797 -84.42999 1035 ft 29 kts 260°
2026-05-05 15:45 33.64791 -84.43229 1035 ft 27 kts 273°
2026-05-05 15:45 33.64843 -84.43436 1035 ft 25 kts 277°
2026-05-05 15:46 33.64842 -84.43638 1035 ft 23 kts 269°
2026-05-05 15:46 33.64842 -84.43829 1034 ft 23 kts 260°
2026-05-05 15:46 33.64783 -84.43997 1034 ft 22 kts 267°
2026-05-05 15:46 33.64783 -84.44177 1034 ft 21 kts 271°
2026-05-05 15:47 33.64727 -84.44322 1035 ft 21 kts 210°
2026-05-05 15:47 33.64635 -84.44323 1035 ft 20 kts 154°
2026-05-05 15:47 33.64559 -84.44141 1034 ft 19 kts 132°
2026-05-05 15:47 33.64442 -84.44074 1034 ft 19 kts 126°
2026-05-05 15:48 33.64435 -84.43924 1034 ft 18 kts 82°
2026-05-05 15:48 33.64453 -84.43776 1034 ft 18 kts 82°
2026-05-05 15:48 33.64460 -84.43633 1035 ft 17 kts 90°
2026-05-05 15:48 33.64453 -84.43502 1035 ft 14 kts 111°
2026-05-05 15:49 33.64398 -84.43463 1035 ft 0 kts 175°
2026-05-05 15:49 33.64393 -84.43465 1035 ft 3 kts 195°
2026-05-05 15:49 33.64383 -84.43492 1035 ft 5 kts 269°
2026-05-05 15:49 33.64382 -84.43531 1035 ft 3 kts 269°
2026-05-05 15:50 33.64382 -84.43539 1035 ft 0 kts 269°